Location: Nicosia
(35.1670°N, 33.3670°E)
Time: 12:55:10
(UTC+02:00)

Tiangong - Pass Details

Date: 12 October 2022
Orbit: 386 x 394 km, 41.5° (Epoch: 04 December)

Event Time Altitude Azimuth Distance (km) Brightness Sun altitude
Rises 19:14:49 0° 277° (W) 2,278 3.8 -12.9°
Reaches altitude 10° 19:17:04 10° 289° (WNW) 1,427 2.0 -13.3°
Maximum altitude 19:19:56 28° 351° (N) 767 -0.6 -13.9°
Enters shadow 19:21:39 18° 40° (NE) 1,059 -0.3 -14.3°
